CZ-6A DEB, 61369

Orbit data source: Space-Track

CZ-6A DEB, 61369 is space debris in LEO originally from a launch on Tue, 06 Aug 2024 UTC launched from the Taiyaun Space Center, China (TSC). Debris objects in space refer to the collection of defunct objects orbiting the Earth. Examples of debris include non-operational satellites, rocket bodies, and fragments generated from explosions, collisions, or faulty payload assembly.

Loading next visibility...
Identifier
61369, 2024-140WJ
Orbit
LEO
Country
Flag of CNCN / PRC
Related business
Manufacturer
SAST
Mission
Spacecraft
Bus & Motor
Unknown
Mass
Unknown
Launch date (UTC)
2024-08-06 (2 years ago)
Launch vehicle
Unknown
Launch site
Taiyaun Space Center, China (TSC)
Object type
Payload
Rocket body
Debris
Shape & HBR
Unknown shape, 0.1 m
Radar Cross Section
Medium (>0.1 m² and <1 m²)

Expand to show TLE details & history
Last TLE update: 17 hours ago

TLE from 17 hours ago
0 CZ-6A DEB
1 61369U 24140WJ  26171.27074907  .00000380  00000-0  15717-3 0  9994
2 61369  88.9914 272.9826 0024971 136.5693 223.7472 14.24536032 94154
Epoch: 2026-06-20T06:29Z
TLE epoch observation values (Epoch: 2026-06-20T06:29:52.719Z)
Latitude
-0.00011°
Longitude
-92.97484°
Altitude
826.104 km
Speed
7.433 km/s
True Right ascension
18h 11m 55s
True Declination
0° 00' 00"
Sunlit
Object was in full shadow at epoch
Visualization orbit readout
Latitude
Unknown
Longitude
Unknown
Altitude
Unknown
Speed
Unknown
Apparent Right ascension
Unknown
Apparent Declination
Unknown
Sunlit
N/A
Visualization observer readout
Local Sidereal Time
10:17:10
Azimuth
Unknown
Elevation
Unknown
Doppler factor
Unknown
Orbital elements
Apogee altitude
824.94 km
Perigee altitude
789.056 km
Semi-major axis
7,185.135 km
Eccentricity
0.0025
Inclination
88.9914°
RAAN
272.9826°
Arg. of periapsis
136.5693°
True anomaly
223.54978°
Mean anomaly
223.7472°
Eccentric anomaly
223.64845°
Mean motion
3.56362 °/min
Orbital period
101.02 mins
BSTAR
0.00015717
Loading maneuver chart data...
Computing Atmospheric mass density...
Loading historical data...
Loading historical data...
Loading historical data...
Loading historical data...
Loading historical data...
Loading historical data...
Loading historical data...

Documentation

Showing up to 5 results
|